Regional Weather Roundup
Issued by NWS

Home | Current Version | Previous Version | Text Only | Print | Product List | Glossary On
Versions: 1 2 3 4 5 6 7 8 9 10 11 12 13 14 15 16 17 18 19 20 21 22 23 24 25 26 27 28 29 30 31 32 33 34 35 36 37 38 39 40 41 42 43 44 45 46 47 48 49 50
000
ASUS43 KOAX 301110
RWRNE

WEATHER ROUNDUP FOR NEBRASKA
NATIONAL WEATHER SERVICE OMAHA NE
600 AM CDT TUE SEP 30 2014

NOTES: SATELLITE DATA IS BEING USED TO AUGMENT CLOUD COVER ABOVE
       12000 FEET.
       "FAIR" INDICATES FEW OR NO CLOUDS BELOW 12,000 FEET WITH NO
       SIGNIFICANT WEATHER AND/OR OBSTRUCTIONS TO VISIBILITY.

  * THESE STATIONS DO NOT REPORT WEATHER SUCH AS RAIN...SNOW OR FOG.

NEZ001>004-019>022-054>056-301200-
NEBRASKA PANHANDLE

CITY           SKY/WX    TMP DP  RH WIND       PRES   REMARKS
SCOTTSBLUFF    LGT RAIN  51  49  92 W13       29.68S
ALLIANCE       LGT RAIN  49  47  93 SW18      29.65
CHADRON        LGT RAIN  51  49  92 W35G48    29.43F
KIMBALL        DRIZZLE   49  46  92 W12       29.78R
SIDNEY         CLOUDY    50  46  86 SW15      29.78R
$$

NEZ057>060-069>072-079>082-301200-
SOUTHWEST NEBRASKA

CITY           SKY/WX    TMP DP  RH WIND       PRES   REMARKS
NORTH PLATTE   CLEAR     54  49  83 SW12      29.77R
IMPERIAL       PTCLDY    51  46  83 SW8       29.81R
LEXINGTON      CLOUDY    62  59  88 SW15      29.78S
MCCOOK         CLEAR     54  49  83 W13       29.81S
OGALLALA       MOCLDY    50  48  92 SW3       29.76S
$$

NEZ005>010-023>029-035>040-094-301200-
NORTH CENTRAL NEBRASKA

CITY           SKY/WX    TMP DP  RH WIND       PRES   REMARKS
VALENTINE      CLEAR     60  55  83 SE21G28   29.63F
AINSWORTH      CLOUDY    62  55  79 S17G23    29.69S
BROKEN BOW     CLOUDY    63  58  83 S16G24    29.74S
O`NEILL        TSTM      64  61  91 SE13G23   29.75F
ORD            CLOUDY    65  58  78 SE10      29.73F
THEDFORD       MOCLDY    58  54  85 SW12G20   29.72R
$$

NEZ041-046>049-061>064-073>077-083>087-301200-
SOUTH CENTRAL NEBRASKA

CITY           SKY/WX    TMP DP  RH WIND       PRES   REMARKS
GRAND ISLAND   LGT RAIN  67  58  72 S20G26    29.81S
AURORA         LGT RAIN  64  60  84 S18G25    29.82S
HASTINGS       CLOUDY    65  57  75 S12       29.80F
HEBRON         CLOUDY    67  56  67 S10G16    29.84S
HOLDREGE       CLOUDY    64  56  75 S15G22    29.78F
KEARNEY *      CLOUDY    64  57  77 S22G29    29.79R
YORK           CLOUDY    66  59  77 S10G17    29.85R
$$

NEZ011>018-030>034-042>045-301200-
NORTHEAST NEBRASKA

CITY           SKY/WX    TMP DP  RH WIND       PRES   REMARKS
NORFOLK        CLOUDY    62  59  90 SE13      29.83F
ALBION         CLOUDY    63  59  86 SE12      29.79F
BLAIR          CLOUDY    64  59  86 SE7       29.89S
COLUMBUS *     CLOUDY    64  57  77 SE8       29.84F
FREMONT        CLOUDY    64  59  83 E10       29.87F
TEKAMAH        CLOUDY    61  58  90 E7        29.88S FOG
WAYNE          CLOUDY    60  58  93 SE10      29.86S
$$

NEZ050>053-065>068-078-088>093-301200-
SOUTHEAST NEBRASKA

CITY           SKY/WX    TMP DP  RH WIND       PRES   REMARKS
LINCOLN        MOCLDY    67  58  72 S15       29.85F
OMAHA EPPLEY   CLOUDY    64  58  80 SE6       29.90R
BEATRICE       CLOUDY    68  59  73 S12       29.87F
FALLS CITY     CLOUDY    61  58  90 S5        29.90R
NEBRASKA CITY  CLOUDY    62  59  92 S6        29.89F
PLATTSMOUTH      N/A     61  55  82 E7        29.90S
$$

NEZ044-045-051>053-067-301200-
OMAHA AREA

CITY           SKY/WX    TMP DP  RH WIND       PRES   REMARKS
OMAHA EPPLEY   CLOUDY    64  58  80 SE6       29.90R
BLAIR          CLOUDY    64  59  86 SE7       29.89S
FREMONT        CLOUDY    64  59  83 E10       29.87F
MILLARD        CLOUDY    64  59  85 SE5       29.88F
OFFUTT AFB     CLOUDY    64  63  99 E5        29.89S
PLATTSMOUTH      N/A     61  55  82 E7        29.90S
WAHOO          CLOUDY    63  56  80 SE9       29.86F
$$


USA.gov is the U.S. government's official web portal to all federal, state and local government web resources and services.